This demonstration page uses our WeatherBlox Daily Observations layout. Learn more.

Left ArrowRight Arrow

Hourly Observations for July 28, 2021

Temp ( °F °C ) Dew Point ( °F °C ) Humidity (%) Winds ( mph kmh ) Pressure ( in mb ) Visibility ( mi km ) Precip ( " mm )
12:53 am 00:53 Clear 78 25.6 52 11.1 40 40 E 6 9 29.98 1015 10 16 0.00 0.00
1:53 am 01:53 Clear 76 24.4 52 11.1 43 43 Calm 30.01 1016 10 16 0.00 0.00
2:53 am 02:53 Mostly Cloudy 77 25 54 12.2 45 45 N 8 13 30.02 1017 10 16 0.00 0.00
3:53 am 03:53 Mostly Cloudy with Light Rain 70 21.1 61 16.1 73 73 ENE 5 7 30.10 1019 10 16 0.00 0.00
4:53 am 04:53 Clear 72 22.2 56 13.3 57 57 E 5 7 30.12 1020 10 16 0.00 0.00
5:53 am 05:53 Sunny 70 21.1 57 13.9 64 64 NE 6 9 30.05 1018 10 16 0.00 0.00
6:53 am 06:53 Sunny 71 21.7 57 13.9 61 61 ENE 9 15 30.07 1018 10 16 0.00 0.00
7:53 am 07:53 Sunny 71 21.7 59 15 66 66 E 7 11 30.10 1019 10 16 0.00 0.00
8:53 am 08:53 Sunny 74 23.3 58 14.4 57 57 NE 12 19 30.11 1020 10 16 0.00 0.00
9:53 am 09:53 Sunny 76 24.4 57 13.9 52 52 ENE 13 20 30.12 1020 10 16 0.00 0.00
10:53 am 10:53 Sunny 80 26.7 57 13.9 45 45 ENE 12 19 30.13 1020 10 16 0.00 0.00
11:53 am 11:53 Sunny 81 27.2 55 12.8 41 41 E 15 24 30.14 1021 10 16 0.00 0.00
12:53 pm 12:53 Sunny 82 27.8 55 12.8 40 40 E 12 19 30.14 1021 10 16 0.00 0.00
1:53 pm 13:53 Sunny 84 28.9 52 11.1 33 33 ENE 12 19 30.13 1020 9 14 0.00 0.00
2:53 pm 14:53 Sunny 85 29.4 48 8.9 28 28 E 13 20 30.11 1020 7 11 0.00 0.00
3:53 pm 15:53 Sunny 88 31.1 49 9.4 26 26 E 14 22 30.10 1019 9 14 0.00 0.00
4:53 pm 16:53 Sunny 88 31.1 48 8.9 25 25 ENE 17 28 30.08 1019 10 16 0.00 0.00
5:53 pm 17:53 Sunny 86 30 47 8.3 26 26 ENE 16 26 30.07 1018 10 16 0.00 0.00
6:53 pm 18:53 Sunny 86 30 49 9.4 28 28 E 16 26 30.06 1018 9 14 0.00 0.00
7:53 pm 19:53 Sunny 84 28.9 50 10 31 31 E 16 26 30.06 1018 10 16 0.00 0.00
8:53 pm 20:53 Sunny 82 27.8 49 9.4 32 32 E 16 26 30.07 1018 10 16 0.00 0.00
9:53 pm 21:53 Clear 80 26.7 48 8.9 33 33 E 15 24 30.07 1018 10 16 0.00 0.00
10:53 pm 22:53 Mostly Clear 78 25.6 48 8.9 35 35 E 15 24 30.07 1018 10 16 0.00 0.00
11:53 pm 23:53 Clear 76 24.4 46 7.8 35 35 E 17 28 30.07 1018 10 16 0.00 0.00

Powered by AerisWeather